Theta_e
358 360 367 367 367 368 365 364 363 362 360 359 359 359 359 361 361 362 364 364 364 364 364 362 359 356 355 354 357 360 361 360 361 359 353 352 350 348 348 349 350 339 343
360 361 366 366 367 367 367 364 364 362 361 359 359 359 359 360 361 362 364 364 364 362 361 361 359 354 353 353 355 357 359 358 359 358 353 352 349 347 347 346 344 340 342
361 360 361 366 366 367 367 365 364 362 361 360 360 360 359 360 360 362 364 364 364 361 359 357 356 354 353 353 354 357 358 357 358 359 357 348 344 348 347 346 344 342 341
361 361 359 365 366 366 366 365 363 362 361 361 361 361 360 361 361 362 363 363 363 360 357 355 354 353 353 353 353 355 356 358 359 361 356 353 346 349 347 345 344 343 341
357 358 361 365 365 365 365 365 364 362 361 361 362 361 361 361 362 362 363 363 362 360 357 355 355 354 353 354 354 355 355 357 361 361 357 354 347 347 348 345 343 343 341
356 361 361 364 365 365 364 364 364 363 362 362 362 362 361 362 363 363 362 362 362 360 358 357 356 354 353 353 354 354 354 356 358 354 357 358 346 352 349 348 344 341 340
359 359 357 364 363 363 363 363 364 364 363 363 363 362 362 362 363 363 363 362 361 361 360 359 356 354 353 353 352 352 352 354 348 348 352 356 349 351 351 346 343 342 340
355 352 352 360 362 363 362 363 363 363 363 363 363 362 362 363 362 362 363 362 362 363 360 359 357 354 352 350 350 350 352 352 347 347 348 354 350 352 350 348 344 342 340
354 354 352 349 357 360 361 362 362 362 362 362 362 362 362 362 362 362 362 362 362 362 361 359 357 354 352 350 350 350 351 352 344 344 347 351 353 353 349 347 345 343 341
348 357 356 355 350 349 353 361 361 361 361 361 361 361 361 361 362 361 360 361 361 362 361 359 358 355 352 349 349 349 350 351 341 341 344 350 354 355 351 348 345 344 342
335 339 352 356 356 351 350 353 360 360 360 360 360 360 359 356 355 355 356 356 359 361 361 360 358 356 352 350 350 349 350 338 336 340 344 355 356 357 352 351 347 345 343
323 327 329 337 345 348 348 357 351 351 350 351 350 351 355 350 349 349 353 355 358 359 359 359 358 357 354 342 338 348 340 334 332 336 341 356 356 358 353 352 349 346 343
329 332 333 337 339 338 340 357 361 362 353 353 351 351 353 350 347 346 344 350 351 358 354 354 353 351 345 342 338 335 335 332 331 332 348 356 356 359 355 353 351 348 346
329 334 334 337 341 342 341 341 351 360 347 355 357 355 354 356 355 354 347 347 349 351 351 350 349 348 345 342 340 337 336 336 335 337 354 356 356 358 358 353 350 349 347
329 333 334 338 346 347 342 342 341 346 351 360 349 340 339 347 344 356 353 353 353 352 352 350 346 347 346 344 341 340 338 340 338 336 348 357 355 356 358 355 352 349 346
334 334 335 336 343 339 344 346 344 342 346 350 351 334 341 349 342 355 357 356 355 354 352 349 345 345 346 344 343 343 344 342 339 336 334 353 354 354 356 357 355 351 349
331 337 336 336 338 345 342 341 340 340 338 339 347 356 350 355 361 361 360 361 356 357 356 355 353 352 349 349 346 346 345 341 340 340 339 346 351 354 355 356 356 354 351
333 334 337 334 335 339 341 340 339 340 340 339 339 344 353 358 359 364 359 356 357 356 356 355 353 350 346 347 344 345 342 342 342 340 338 336 350 349 354 355 355 355 353
332 334 333 337 334 337 338 338 339 340 339 339 340 337 341 351 351 358 357 356 358 355 356 355 352 349 346 348 345 346 345 343 343 340 337 336 343 350 349 353 353 353 352
332 335 336 335 338 339 337 337 336 336 337 338 338 339 342 342 348 354 355 355 355 352 351 352 351 351 345 344 343 341 344 346 342 338 340 341 340 351 349 348 349 350 351
333 335 336 334 339 336 333 331 332 330 332 333 335 337 339 339 343 350 348 355 355 350 349 351 350 347 345 347 341 340 340 343 343 344 341 337 338 352 350 348 348 347 348
333 335 336 336 338 337 332 333 333 333 333 334 335 335 336 337 338 338 348 349 354 351 349 348 347 344 345 345 338 337 331 334 337 338 340 339 342 347 348 347 346 345 345
331 333 331 337 338 338 337 333 332 330 329 328 331 333 337 339 340 342 344 347 349 348 346 348 348 346 340 344 346 336 329 326 331 341 339 337 339 346 346 346 345 347 344
328 331 335 335 337 334 336 333 330 325 323 325 325 329 330 334 336 338 340 340 347 347 345 346 348 345 344 340 342 343 340 337 330 328 340 343 342 342 335 338 342 344 342
324 327 334 335 335 336 335 332 329 326 325 325 325 326 328 330 332 336 337 336 336 343 344 344 344 343 342 340 340 338 339 340 339 333 327 335 338 333 333 339 343 342 339
320 323 330 333 333 333 333 331 330 327 326 325 324 323 322 324 328 329 331 333 338 336 338 343 345 344 342 342 342 341 338 335 333 332 331 332 332 334 338 339 341 337 334
Wind_Speed
12 14 10 11 11 12 13 12 12 10 10 10 9 9 7 6 8 10 10 10 9 8 8 8 6 6 5 5 7 9 10 9 9 10 11 11 11 11 9 8 10 12 12
15 13 10 11 11 10 12 13 12 11 11 10 9 9 7 6 7 8 8 8 8 8 8 8 7 5 4 4 5 6 6 5 4 5 9 10 10 10 11 13 14 11 11
17 13 12 11 9 10 11 12 13 12 11 11 10 9 9 7 7 7 7 7 7 7 7 6 7 6 5 4 4 4 3 2 3 5 8 6 8 10 14 14 12 11 10
16 11 12 12 10 10 10 11 12 12 12 12 10 9 10 9 9 8 7 7 7 6 6 6 6 5 4 4 4 4 2 3 7 8 7 7 7 10 13 14 11 10 10
13 12 12 12 11 11 11 10 11 12 12 12 12 12 10 8 8 8 8 8 7 7 6 6 5 5 5 4 4 3 3 5 9 9 8 6 6 12 14 13 11 10 5
17 14 13 11 9 9 10 9 9 10 11 10 11 11 10 10 10 8 7 7 7 8 8 7 6 6 6 6 5 5 5 7 7 8 9 4 11 17 16 12 12 11 9
19 13 12 11 9 8 9 9 9 8 10 10 10 10 11 11 10 9 9 9 9 8 8 8 8 7 7 7 7 6 6 8 7 10 9 4 9 19 18 15 13 11 10
18 14 10 9 8 7 8 8 8 8 8 9 9 10 10 10 11 11 11 10 10 9 9 9 8 8 8 8 8 7 7 8 9 10 12 9 18 21 19 17 15 12 10
17 16 14 13 12 11 9 8 8 8 8 9 9 9 10 11 11 12 12 11 11 10 9 9 9 9 9 9 9 9 9 9 8 8 12 7 20 22 21 19 16 13 12
13 18 15 13 13 11 13 17 15 13 11 10 10 11 11 11 11 11 11 12 12 12 11 11 10 10 9 9 9 9 10 10 9 10 10 7 21 21 22 20 17 15 13
4 6 13 15 15 12 14 14 15 17 15 12 10 11 9 7 10 13 13 13 16 14 14 13 12 11 11 10 11 12 11 6 9 9 6 22 23 23 23 21 18 16 14
17 20 17 18 10 5 6 10 7 6 7 8 9 7 7 7 8 11 14 20 18 18 16 14 13 12 10 7 7 15 6 9 9 10 6 24 23 23 23 22 19 17 16
17 16 15 15 13 16 13 0 4 3 4 6 8 6 7 7 6 7 5 8 8 12 8 10 10 8 10 9 9 8 11 11 9 9 9 22 21 22 23 22 20 18 16
16 15 16 15 11 11 8 8 4 5 9 6 2 8 8 4 5 5 6 6 9 8 12 11 8 11 13 13 13 13 11 10 9 6 11 21 21 21 22 23 22 20 18
12 12 12 11 6 6 8 8 9 10 3 8 8 10 10 14 8 5 6 5 5 9 11 11 11 11 13 13 12 13 12 6 6 4 4 18 19 21 22 23 23 22 20
8 9 9 10 7 9 7 7 7 7 10 7 7 10 17 13 17 8 6 5 5 5 6 6 9 10 8 12 13 10 6 5 7 6 4 9 18 19 22 23 23 23 21
8 8 8 9 10 7 9 9 8 8 8 7 7 5 22 20 6 5 5 2 4 6 8 5 5 3 4 5 7 6 7 10 7 6 6 5 11 19 21 23 24 23 22
7 7 8 9 11 10 9 9 8 8 8 7 7 8 7 6 7 7 5 5 6 6 6 4 3 5 4 4 5 5 6 7 8 9 8 7 9 9 15 20 21 22 24
7 7 8 8 10 10 10 9 10 10 8 7 7 7 10 7 7 8 7 6 8 7 6 3 4 5 5 4 5 5 7 6 7 9 10 10 9 12 10 20 25 20 18
6 6 7 7 8 8 8 9 8 8 8 7 7 7 8 8 9 5 7 9 10 9 8 6 6 5 6 6 8 9 5 5 6 7 7 7 10 14 13 13 11 10 18
4 5 5 6 6 6 7 8 8 9 10 11 11 13 11 10 13 7 7 6 9 10 10 6 7 9 7 5 6 8 9 7 7 7 8 8 8 8 14 11 9 10 12
3 4 4 5 5 5 6 7 8 7 9 9 10 12 14 12 10 9 9 8 7 6 10 7 8 7 6 7 8 5 6 8 9 12 10 7 9 9 11 13 13 14 11
5 4 5 4 5 4 7 6 7 8 10 10 10 10 8 11 10 7 7 7 10 10 7 8 8 10 9 6 7 6 4 8 8 4 8 10 9 3 3 1 12 12 10
6 5 4 5 6 6 6 6 7 8 9 9 11 11 13 16 14 13 9 9 10 9 11 10 8 10 9 10 6 10 15 8 7 4 3 3 3 3 2 6 7 9 8
7 6 4 5 6 7 8 7 7 8 8 8 8 12 15 13 14 15 11 11 11 7 12 13 14 12 10 11 10 8 8 6 10 9 9 6 1 4 3 4 7 8 7
10 8 4 4 5 6 7 9 11 10 10 9 10 9 10 11 12 13 15 12 12 10 10 11 13 16 11 11 12 11 8 6 9 8 7 7 5 3 2 4 11 2 6
Wind_Direction
126 123 112 109 111 120 128 128 128 131 130 130 123 119 117 99 107 109 110 108 110 112 116 126 113 96 81 67 55 53 61 67 78 91 102 106 103 94 76 36 134 89 84
120 130 119 113 116 125 133 136 135 134 134 132 133 131 133 128 123 117 125 125 127 131 135 138 135 122 113 97 83 72 67 78 109 124 124 121 117 115 98 78 90 95 90
123 129 131 116 121 128 136 142 139 140 141 140 144 146 149 149 145 140 139 140 144 145 143 146 147 147 145 139 122 101 92 132 209 192 177 173 136 137 114 103 104 105 101
120 146 134 127 133 133 135 144 146 147 148 151 154 157 158 162 162 161 158 159 161 160 165 165 159 166 169 163 155 146 151 213 239 237 213 215 153 152 126 120 120 119 116
125 133 131 134 136 139 141 144 152 154 155 161 162 162 163 168 171 169 170 174 178 180 184 187 184 181 187 187 184 178 198 234 249 260 253 212 152 161 140 134 134 132 130
130 118 127 123 126 130 136 142 148 157 159 167 169 166 167 171 172 172 179 182 191 192 196 198 194 197 201 205 207 201 212 243 263 260 250 282 168 161 149 153 133 136 131
103 114 127 120 125 136 140 148 151 158 160 170 174 174 175 176 178 179 187 191 196 203 209 209 202 204 210 212 214 220 224 243 253 259 256 193 176 161 153 146 144 150 151
104 110 132 126 137 147 152 157 159 161 164 173 176 180 182 185 184 187 192 198 204 211 212 217 212 215 214 216 224 229 231 241 261 255 262 165 168 157 153 149 153 162 166
131 139 149 160 166 168 168 169 170 170 176 180 183 187 188 191 194 195 196 200 205 210 215 221 222 222 225 226 226 228 231 241 259 274 284 147 172 156 157 154 161 172 176
156 147 155 165 171 176 179 184 182 180 187 194 194 194 196 200 205 205 201 205 206 207 210 217 224 227 231 236 243 243 244 245 252 262 263 162 174 161 161 157 167 179 184
116 193 151 174 161 187 198 179 187 187 186 196 212 212 200 217 213 221 216 221 204 206 209 213 217 225 235 240 241 240 237 237 246 246 248 160 171 166 163 159 171 183 189
30 32 29 27 14 339 356 156 179 189 191 192 208 218 217 240 239 228 207 206 203 204 206 212 218 222 227 242 229 231 228 235 242 248 235 168 170 168 167 161 172 185 192
24 26 8 22 3 11 352 139 178 183 4 228 193 199 219 217 239 244 243 204 201 200 206 208 212 222 229 227 237 228 212 223 234 241 163 165 173 170 170 168 173 185 193
16 23 5 5 10 3 346 330 336 172 166 289 34 349 342 244 240 238 232 213 192 201 207 212 201 209 217 228 236 256 206 219 223 235 162 172 176 174 171 176 177 186 194
15 20 5 341 3 341 349 339 328 328 196 176 146 138 170 254 272 227 237 248 235 207 198 204 214 205 210 215 229 236 257 279 307 309 147 178 180 181 178 180 183 186 196
14 23 2 334 6 359 336 321 310 313 321 317 157 180 178 224 245 187 213 233 226 257 280 208 208 210 203 203 215 225 237 243 246 252 254 183 188 187 184 185 187 188 196
3 17 355 331 10 334 349 335 319 301 311 308 302 267 190 213 224 236 232 221 248 232 236 276 289 264 223 208 213 223 218 227 228 240 247 178 193 195 192 191 191 188 193
4 3 351 351 328 357 335 321 304 298 301 300 293 302 266 229 212 189 217 234 277 277 238 211 247 284 252 228 223 227 230 221 214 215 225 240 183 193 201 198 195 197 193
2 5 347 349 345 343 326 307 296 285 276 274 267 272 283 279 285 212 203 211 233 263 277 259 213 231 271 265 262 233 230 232 219 225 219 218 208 186 187 201 196 198 207
0 359 350 340 335 337 323 305 313 309 306 306 294 270 251 269 249 267 222 209 213 229 244 234 222 225 232 249 267 266 243 247 234 231 238 229 233 182 183 196 194 190 210
353 340 339 330 339 341 323 313 336 324 316 314 313 313 323 331 334 262 253 268 195 220 226 234 220 227 238 226 240 252 256 252 253 250 221 231 251 186 186 171 175 181 205
337 321 327 314 323 324 310 323 292 293 293 290 286 286 292 288 281 277 290 255 279 251 220 228 239 228 229 224 236 252 273 263 253 249 246 232 238 221 187 183 171 183 187
350 336 321 333 333 326 301 310 327 331 324 317 316 317 304 298 307 300 274 261 271 259 256 236 232 225 230 230 217 205 237 245 261 267 231 226 244 8 327 290 201 180 186
331 334 16 4 341 320 320 311 301 300 301 311 308 318 322 320 322 316 307 303 249 251 254 253 258 230 221 230 229 226 231 253 270 294 343 335 54 62 274 44 246 223 160
353 326 23 20 350 345 322 280 282 280 280 285 288 306 310 308 306 307 296 276 270 271 251 252 256 259 225 229 222 232 249 251 246 246 262 260 337 206 239 223 256 182 113
333 317 347 16 345 319 319 326 317 307 299 295 292 292 291 287 288 281 280 278 255 261 259 248 257 254 240 234 233 234 227 222 239 247 242 256 233 353 352 312 265 188 68